Date String (YYYY-MM-DD hh:mm:ss) UTC,Instrument flags,Ambient pressure (hPa),Sample flow (lpm),Bypass flow (lpm),Sample temperature (°C),Ambient temperature (°C),ASC tube jacket temperature (°C),LED temperature (°C),Box temperature (°C),Sample RH (%),Span deviation,Mass concentration (μg/m³),Mass concentration (μg/m³),Mass concentration (μg/m³)
DateTimeUTC,F1_M11,P_M11,Q1_M11,Q2_M11,T1_M11,T2_M11,T3_M11,T4_M11,T5_M11,U1_M11,ZSPAN_M11,X2_M11,X0_M11,X1_M11
2022-01-25 03:00:00,,0822.8,5.00,0.00,22.5,21.8,00.0,31.4,24.2,10.1,0000.0,0003.18,0012.23,0002.10
2022-01-25 03:01:00,,0822.8,5.00,0.00,22.4,21.8,00.0,31.4,24.2,10.1,0000.0,0003.22,0012.29,0002.17
2022-01-25 03:02:00,,0822.8,5.00,0.00,22.4,21.8,00.0,31.4,24.2,10.1,0000.0,0003.31,0013.17,0002.21
2022-01-25 03:03:00,,0822.9,4.98,0.00,22.4,21.8,00.0,31.4,24.2,10.1,0000.0,0003.41,0013.60,0002.26
2022-01-25 03:04:00,,0822.9,5.02,0.00,22.4,21.8,00.0,31.4,24.2,10.2,0000.0,0003.47,0013.55,0002.30
2022-01-25 03:05:00,,0823.0,5.00,0.00,22.4,21.8,00.0,31.4,24.2,10.2,0000.0,0003.51,0013.59,0002.34
2022-01-25 03:06:00,,0823.0,5.00,0.00,22.4,21.8,00.0,31.4,24.2,10.3,0000.0,0003.54,0012.56,0002.38
2022-01-25 03:07:00,,0823.0,5.00,0.00,22.4,21.8,00.0,31.4,24.2,10.3,0000.0,0003.54,0013.06,0002.42
2022-01-25 03:08:00,,0823.0,5.00,0.00,22.4,21.7,00.0,31.4,24.2,10.3,0000.0,0003.54,0012.79,0002.44
2022-01-25 03:09:00,,0822.9,5.00,0.00,22.4,21.7,00.0,31.4,24.2,10.2,0000.0,0003.48,0011.77,0002.43
2022-01-25 03:10:00,,0822.9,5.00,0.00,22.4,21.7,00.0,31.4,24.1,10.1,0000.0,0003.50,0011.85,0002.42
2022-01-25 03:11:00,,0822.9,5.00,0.00,22.4,21.7,00.0,31.4,24.1,10.2,0000.0,0003.54,0011.96,0002.41
2022-01-25 03:12:00,,0822.9,5.00,0.00,22.4,21.7,00.0,31.4,24.1,10.2,0000.0,0003.58,0011.72,0002.41
2022-01-25 03:13:00,,0823.0,5.01,0.00,22.3,21.7,00.0,31.4,24.1,10.3,0000.0,0003.56,0011.15,0002.41
2022-01-25 03:14:00,,0823.0,5.01,0.00,22.3,21.6,00.0,31.3,24.1,10.3,0000.0,0003.48,0011.09,0002.40
2022-01-25 03:15:00,,0823.0,5.00,0.00,22.3,21.6,00.0,31.3,24.1,10.3,0000.0,0003.44,0011.16,0002.39
2022-01-25 03:16:00,,0823.0,4.99,0.00,22.3,21.6,00.0,31.3,24.1,10.2,0000.0,0003.45,0011.89,0002.37
2022-01-25 03:17:00,,0823.0,5.00,0.00,22.3,21.6,00.0,31.3,24.1,10.2,0000.0,0003.50,0013.03,0002.36
2022-01-25 03:18:00,,0823.0,4.99,0.00,22.3,21.6,00.0,31.3,24.1,10.2,0000.0,0003.52,0012.39,0002.32
2022-01-25 03:19:00,,0823.0,5.01,0.00,22.3,21.6,00.0,31.3,24.1,10.2,0000.0,0003.49,0012.89,0002.29
2022-01-25 03:20:00,,0823.1,5.00,0.00,22.3,21.6,00.0,31.3,24.1,10.2,0000.0,0003.49,0013.19,0002.28
2022-01-25 03:21:00,,0823.1,4.99,0.00,22.3,21.6,00.0,31.3,24.1,10.2,0000.0,0003.45,0013.70,0002.25
2022-01-25 03:22:00,,0823.1,5.00,0.00,22.3,21.6,00.0,31.3,24.1,10.2,0000.0,0003.43,0014.99,0002.23
2022-01-25 03:23:00,,0823.1,5.00,0.00,22.3,21.6,00.0,31.3,24.0,10.1,0000.0,0003.39,0016.14,0002.20
2022-01-25 03:24:00,,0823.1,4.99,0.00,22.3,21.6,00.0,31.3,24.0,10.1,0000.0,0003.38,0016.79,0002.18
2022-01-25 03:25:00,,0823.0,5.00,0.00,22.3,21.6,00.0,31.3,24.0,10.1,0000.0,0003.38,0017.01,0002.17
2022-01-25 03:26:00,,0823.1,5.01,0.00,22.2,21.6,00.0,31.3,24.0,10.2,0000.0,0003.35,0017.94,0002.14
2022-01-25 03:27:00,,0823.1,5.00,0.00,22.2,21.6,00.0,31.3,24.0,10.2,0000.0,0003.33,0017.20,0002.13
2022-01-25 03:28:00,,0823.1,5.00,0.00,22.2,21.6,00.0,31.3,24.0,10.2,0000.0,0003.27,0016.05,0002.11
2022-01-25 03:29:00,,0823.1,5.00,0.00,22.2,21.6,00.0,31.3,24.0,10.2,0000.0,0003.22,0015.69,0002.07
2022-01-25 03:30:00,,0823.1,4.99,0.00,22.2,21.6,00.0,31.2,24.0,10.2,0000.0,0003.22,0014.40,0002.06
2022-01-25 03:31:00,,0823.1,4.99,0.00,22.2,21.6,00.0,31.2,24.0,10.3,0000.0,0003.19,0014.27,0002.05
2022-01-25 03:32:00,,0823.1,5.00,0.00,22.2,21.6,00.0,31.2,24.0,10.3,0000.0,0003.17,0014.37,0002.03
2022-01-25 03:33:00,,0823.1,5.00,0.00,22.2,21.6,00.0,31.2,24.0,10.3,0000.0,0003.09,0013.18,0002.01
2022-01-25 03:34:00,,0823.2,5.00,0.00,22.2,21.6,00.0,31.2,24.1,10.3,0000.0,0003.03,0011.85,0001.99
2022-01-25 03:35:00,,0823.2,5.01,0.00,22.2,21.6,00.0,31.2,24.0,10.3,0000.0,0002.98,0011.19,0001.98
2022-01-25 03:36:00,,0823.2,5.00,0.00,22.2,21.6,00.0,31.2,24.0,10.4,0000.0,0003.00,0011.08,0001.97
2022-01-25 03:37:00,,0823.2,5.00,0.00,22.2,21.6,00.0,31.2,24.0,10.4,0000.0,0002.96,0009.95,0001.97
2022-01-25 03:38:00,,0823.2,5.00,0.00,22.2,21.6,00.0,31.2,24.0,10.4,0000.0,0002.92,0009.74,0001.98
2022-01-25 03:39:00,,0823.2,4.99,0.00,22.2,21.6,00.0,31.2,24.0,10.4,0000.0,0002.89,0009.71,0001.98
2022-01-25 03:40:00,,0823.2,5.02,0.00,22.2,21.6,00.0,31.2,24.0,10.4,0000.0,0002.89,0009.71,0002.00
2022-01-25 03:41:00,,0823.2,4.99,0.00,22.2,21.6,00.0,31.2,24.0,10.4,0000.0,0002.87,0009.56,0002.00
2022-01-25 03:42:00,,0823.3,5.00,0.00,22.2,21.6,00.0,31.2,24.0,10.4,0000.0,0002.91,0009.25,0002.02
2022-01-25 03:43:00,,0823.3,4.99,0.00,22.2,21.6,00.0,31.2,24.0,10.4,0000.0,0002.95,0008.45,0002.02
2022-01-25 03:44:00,,0823.3,5.00,0.00,22.2,21.6,00.0,31.2,24.0,10.3,0000.0,0002.96,0007.96,0002.03
2022-01-25 03:45:00,,0823.3,5.00,0.00,22.3,22.0,00.0,31.2,24.1,10.4,0000.0,0002.92,0008.08,0002.03
2022-01-25 03:46:00,,0823.4,5.00,0.00,22.4,22.8,00.0,31.3,24.4,10.3,0000.0,0002.90,0008.20,0002.03
2022-01-25 03:47:00,,0823.4,5.00,0.00,22.5,23.0,00.0,31.3,24.5,10.2,0000.0,0002.84,0006.47,0002.03
2022-01-25 03:48:00,,0823.4,5.02,0.00,22.6,22.8,00.0,31.3,24.5,10.1,0000.0,0002.86,0006.03,0002.03
2022-01-25 03:49:00,,0823.3,5.01,0.00,22.6,22.7,00.0,31.4,24.5,10.1,0000.0,0002.83,0005.98,0002.01
2022-01-25 03:50:00,,0823.4,4.98,0.00,22.6,22.5,00.0,31.4,24.4,10.1,0000.0,0002.81,0005.97,0002.00
2022-01-25 03:51:00,,0823.4,5.02,0.00,22.5,22.4,00.0,31.4,24.4,10.1,0000.0,0002.81,0005.96,0001.99
2022-01-25 03:52:00,,0823.4,4.99,0.00,22.5,22.3,00.0,31.4,24.4,10.1,0000.0,0002.76,0005.83,0001.98
2022-01-25 03:53:00,,0823.4,5.01,0.00,22.5,22.2,00.0,31.4,24.4,10.1,0000.0,0002.73,0005.85,0001.96
2022-01-25 03:54:00,,0823.4,5.00,0.00,22.5,22.1,00.0,31.4,24.3,10.1,0000.0,0002.68,0006.51,0001.96
2022-01-25 03:55:00,,0823.4,5.00,0.00,22.5,22.1,00.0,31.4,24.3,10.1,0000.0,0002.69,0007.35,0001.96
2022-01-25 03:56:00,,0823.4,5.01,0.00,22.5,22.0,00.0,31.4,24.2,10.1,0000.0,0002.69,0007.68,0001.97
2022-01-25 03:57:00,,0823.4,5.00,0.00,22.4,22.0,00.0,31.4,24.2,10.1,0000.0,0002.71,0007.65,0001.98
2022-01-25 03:58:00,,0823.4,5.00,0.00,22.4,21.9,00.0,31.4,24.2,10.1,0000.0,0002.74,0007.93,0001.97
2022-01-25 03:59:00,,0823.4,5.00,0.00,22.4,21.9,00.0,31.4,24.2,10.2,0000.0,0002.76,0007.98,0001.96
